Погода в Луковникове

Россия / Тверская область     56°39′25″N   34°21′27″E
темп.,
°C
ветер,
м/с
пор.,
м/с
влажн.,
%
обл.,
%
осадки,
мм/ч
давл.,
гПа
погр.,
м
23 апреля, пт
пт2300:00+7ю4118914 0.4 1011292
03:00+6ююв4129244 0.4 1010335
06:00+6ю3894100 0.1 1009456
09:00+4зюз2597100 2.7 1011555
12:00+6ююз3484100 1.7 1011699
15:00+7ююз4772100 2.5 10111123
18:00+7юз366991 0.3 10111069
21:00+4юз2283100 0.5 101222
24 апреля, сб
сб2400:00+2зюз2385100 0.0 101161
03:00+2зюз2388100 0.0 101090
06:00+1з2591100 0.0 1009186
09:00+4зсз348185 0.0 1008716
12:00+5з4564100 0.3 10081310
15:00+7зсз4542100 0.4 10082084
18:00+6зсз56515 0.1 10091462
21:00+1зсз37742 0.1 1010214
25 апреля, вс
вс2500:000з310835 0.0 1010362
03:00−1з310865 0.0 1010433
06:00−1з310835 0.0 1010523
09:00+3з475838 0.0 10091155
12:00+5зюз5745100 0.1 10081973
15:00+4з575496 0.2 10091443
18:00+4з465429 0.1 10091439
21:000юз25785 0.1 101098
26 апреля, пн
пн2600:00−1зюз288932 0.0 1010181
03:00−2юз37935 0.0 1010209
06:00−1зюз389547 0.0 1011352
09:00+3зюз466364 0.0 10111069
12:00+6юз4741100 0.1 10102296
15:00+7юз573599 0.2 10092682
18:00+6з354568 0.0 10081722
21:000юз117145 0.1 100910
27 апреля, вт
вт2700:00−1юз25858 0.0 100995
03:00−2юз279712 0.0 1009191
06:00−2юз279622 0.0 1008262
09:00+3зюз356784 0.0 10081076
12:00+4з456299 0.1 10091262
15:00+6зюз464898 0.2 10091900
18:00+4зюз576499 0.1 10101251
21:00+1зюз4107771 0.1 1011488